Theta_e
287 286 286 286 286 285 285 284 284 284 284 283 283 283 283 282 282 282 282 282 282 282 282 282 282 281 281 281 281 281 280 280 280 280 280 279 279 279 279 279 279 279 278 278 278 278 278 279 279 279 280 280 279 279 279 279 279 279 279 279 279 279 278 278 278 278 278 278 278
286 286 286 286 285 285 284 283 283 283 283 283 283 283 282 282 282 282 281 281 281 281 281 281 281 280 280 280 280 280 280 279 279 279 279 279 279 279 279 278 278 278 278 278 278 278 278 278 279 279 279 279 279 279 279 279 279 279 279 278 279 279 279 278 278 278 278 278 278
286 286 285 285 285 284 283 283 283 282 282 282 282 282 282 282 282 282 281 281 281 280 280 281 280 280 279 279 279 279 279 279 278 278 278 278 278 278 278 278 278 278 278 278 278 278 278 278 279 279 279 279 279 278 279 279 279 279 278 278 279 279 279 279 278 278 278 278 278
285 285 285 284 284 283 283 283 282 282 282 282 282 281 281 282 281 281 281 280 280 280 280 280 279 279 279 279 279 279 278 279 278 278 277 277 277 277 278 278 278 277 278 278 278 278 278 278 278 279 279 278 278 278 278 279 278 278 278 278 278 278 278 279 278 278 278 278 278
285 285 284 284 283 283 283 282 282 282 282 282 282 281 281 281 280 280 280 280 280 280 279 279 279 279 279 278 278 278 278 278 278 278 277 277 277 277 277 277 277 277 277 277 277 278 278 278 278 278 278 278 278 278 278 278 278 278 278 278 278 278 278 278 278 278 278 278 278
284 284 283 283 283 282 282 282 282 282 282 282 281 281 281 281 280 280 280 279 279 279 279 279 279 279 279 278 278 278 278 277 277 277 277 277 277 277 277 277 277 277 277 277 277 277 277 277 278 278 278 278 277 277 278 278 278 277 277 278 278 278 278 278 278 278 278 278 278
284 283 283 282 282 282 282 282 282 281 281 281 280 280 280 280 280 279 279 279 279 279 279 279 279 279 279 278 277 277 277 277 277 277 277 276 276 276 276 276 276 276 276 276 276 276 277 276 277 278 278 278 278 278 277 277 277 277 277 277 278 278 278 277 278 278 278 277 277
283 283 282 282 282 282 281 281 281 281 281 281 280 280 279 279 279 279 279 278 278 278 279 279 278 278 278 277 277 277 276 276 276 276 276 276 276 276 275 275 275 276 276 276 276 276 276 276 277 277 277 277 278 277 277 276 276 276 276 276 277 277 278 277 277 278 278 277 276
283 282 282 282 282 282 281 281 281 281 281 280 280 280 280 279 279 279 278 278 278 278 278 278 278 278 277 277 276 276 276 275 275 275 275 275 275 275 275 275 275 275 275 275 276 275 276 276 277 277 277 277 277 277 276 276 275 275 275 276 276 277 277 277 277 277 277 277 276
282 282 281 281 281 281 281 281 281 281 280 280 280 280 280 280 279 279 279 279 278 278 278 277 277 277 277 276 276 276 275 275 275 275 274 275 275 274 274 274 274 274 275 275 275 275 275 276 276 276 276 276 276 275 275 275 275 275 275 276 276 276 276 276 276 276 276 276 276
282 281 281 281 281 281 281 281 280 280 280 280 279 279 279 280 279 279 279 279 278 278 277 277 277 277 276 276 276 276 275 275 275 274 274 274 275 275 274 274 274 274 274 274 275 275 275 275 275 274 274 275 275 275 275 275 274 274 274 275 275 275 275 275 275 275 275 274 274
281 281 281 281 281 281 280 280 280 280 280 279 279 279 279 279 279 279 278 278 277 277 277 277 277 277 276 276 276 275 275 274 274 274 274 274 274 275 275 275 275 275 275 275 275 276 275 275 275 274 274 274 275 274 274 274 274 274 275 274 274 274 274 274 274 274 274 273 273
281 281 280 280 280 280 280 280 279 279 279 279 279 279 279 279 279 278 278 277 277 277 277 277 277 276 276 276 275 275 274 274 274 274 274 274 274 275 275 275 275 275 275 275 276 277 276 275 274 274 275 275 275 275 274 274 274 273 273 272 272 272 272 271 271 271 272 272 272
281 280 280 280 280 280 280 279 279 279 279 279 279 278 278 278 278 278 278 277 277 276 276 276 276 276 276 275 275 274 274 274 274 274 274 274 274 274 275 275 275 275 275 276 276 276 275 274 275 275 274 274 274 273 273 272 272 271 270 270 270 270 270 270 270 270 270 270 270
280 280 280 280 279 279 279 279 279 279 278 278 278 278 278 278 278 278 277 277 276 276 276 276 275 276 276 275 275 274 274 274 274 274 274 275 274 274 274 275 274 274 274 275 276 276 275 275 274 274 273 272 271 271 272 271 271 270 269 269 269 269 269 270 269 269 270 269 269
280 280 280 279 279 279 279 279 279 278 278 278 278 278 278 277 277 277 277 276 276 276 276 275 275 275 275 275 274 274 273 273 273 273 273 273 273 273 274 274 274 274 274 274 274 274 275 274 274 272 271 271 270 270 270 270 270 269 269 269 269 269 269 269 269 269 269 269 269
280 279 279 279 279 279 278 278 278 278 278 278 278 278 277 277 277 277 277 276 276 275 275 274 274 274 274 274 274 273 272 272 272 272 272 272 272 273 274 274 274 274 274 273 273 273 273 272 271 271 270 270 270 270 270 270 269 269 269 269 269 269 269 269 269 269 269 268 268
279 279 279 279 279 278 278 278 278 278 278 277 277 277 277 277 277 276 276 276 275 275 274 274 274 273 273 273 272 272 272 271 271 271 272 272 273 274 274 275 275 274 274 273 273 272 271 270 270 270 270 270 270 270 270 270 269 269 269 269 268 268 269 269 269 269 268 268 268
279 279 279 279 278 278 278 278 278 277 277 277 277 277 277 276 276 276 275 275 275 274 274 274 273 273 273 272 271 272 272 271 271 271 271 272 273 274 275 275 274 274 274 273 273 271 271 270 270 270 270 271 270 270 269 269 268 268 268 268 268 268 268 268 269 269 269 268 268
279 279 279 279 278 278 278 278 277 277 277 277 277 277 276 276 276 275 275 274 274 274 273 273 273 272 272 271 271 271 270 270 270 270 271 272 273 274 275 275 274 274 273 272 272 271 270 270 270 270 270 270 270 270 269 269 268 268 268 268 268 268 268 268 268 269 269 268 268
278 279 279 278 278 278 278 278 277 277 277 277 276 276 276 275 275 275 274 274 274 273 273 272 272 271 271 270 270 270 270 270 270 270 270 272 273 274 274 274 274 273 272 271 271 270 270 270 270 270 270 270 269 269 269 268 268 268 268 268 268 268 268 269 269 269 269 269 269
278 278 278 278 278 278 277 277 277 277 277 276 276 276 275 275 275 274 274 274 274 273 272 272 271 271 270 270 269 269 269 270 270 270 270 271 272 273 273 273 273 273 272 271 270 270 270 270 270 270 270 270 269 269 269 268 268 267 268 268 268 269 269 269 269 269 269 270 270
278 278 278 278 278 278 277 277 277 277 276 276 276 275 275 275 274 274 274 274 273 273 272 272 271 271 270 270 270 269 269 270 270 270 271 272 272 272 272 272 272 271 271 270 269 269 269 269 269 270 270 270 270 269 269 269 268 268 268 268 269 269 269 270 270 270 270 271 271
278 278 278 278 278 277 277 277 276 276 276 275 275 274 274 274 274 274 273 273 273 273 272 272 271 271 270 270 270 269 269 270 270 270 271 271 271 271 271 271 270 270 270 269 270 270 269 269 268 268 269 269 269 269 269 269 269 269 269 269 269 270 270 270 270 271 271 271 271
278 278 278 278 277 277 276 276 276 275 275 274 274 274 273 273 273 273 273 272 271 271 271 270 269 269 269 269 268 268 268 269 269 269 269 270 270 270 270 270 270 270 270 270 272 273 273 272 271 270 269 270 270 270 270 270 270 270 270 270 270 270 270 270 270 271 271 271 271
278 278 277 277 277 276 276 275 275 274 274 273 273 273 272 272 272 272 271 270 270 269 269 269 268 268 268 268 268 268 268 268 269 269 269 269 269 269 270 270 270 270 270 271 273 274 275 275 274 273 271 271 271 270 270 271 271 271 271 271 271 271 270 270 271 271 271 271 272
278 277 277 276 276 275 275 274 274 273 273 272 272 271 271 271 271 270 270 269 268 268 268 268 268 268 269 268 268 267 268 268 269 269 269 269 269 269 270 270 270 270 270 272 273 274 275 276 276 276 274 273 272 271 271 271 271 271 271 271 271 271 271 271 271 271 271 271 271
277 277 276 275 275 274 274 273 273 272 272 271 271 271 270 270 269 269 268 268 267 267 267 267 267 268 268 267 267 267 268 268 269 269 269 269 270 270 270 270 270 270 271 273 274 275 275 276 276 276 276 274 273 272 272 272 272 272 272 272 271 271 271 271 271 271 271 270 271
276 276 275 275 274 273 273 272 272 271 271 270 270 270 269 269 268 268 268 267 267 267 266 266 267 267 267 267 267 267 268 268 269 269 269 269 269 270 270 270 269 270 272 274 275 275 276 276 276 277 277 276 274 273 273 272 272 272 272 272 272 271 271 271 271 271 271 271 271
275 275 274 274 273 272 272 271 271 270 270 269 269 268 268 268 268 267 267 267 266 266 267 267 267 266 267 267 268 268 268 269 269 269 269 269 269 269 269 270 269 270 272 274 275 275 276 276 276 276 276 276 275 274 273 273 272 272 272 272 271 271 271 271 271 271 271 271 271
274 274 273 273 272 271 271 270 270 269 269 268 268 268 267 267 267 267 267 266 266 267 267 267 267 267 267 268 268 269 269 269 270 270 269 269 269 269 269 269 268 269 272 274 274 275 275 276 276 276 276 276 275 274 273 273 272 272 272 271 271 271 271 271 271 271 271 271 271
273 273 273 272 271 270 270 269 269 268 268 268 267 267 267 267 267 267 267 267 267 267 267 267 267 267 268 268 269 269 269 269 269 269 269 269 269 268 268 268 267 269 271 274 274 275 275 275 275 276 276 276 275 274 273 272 272 272 272 271 271 271 271 271 271 271 271 271 271
273 272 272 271 270 269 269 268 268 267 267 267 267 267 267 266 267 266 266 266 266 267 267 267 267 268 268 268 269 269 269 269 269 269 269 269 268 268 268 268 267 269 272 273 274 274 275 275 275 276 276 276 275 274 272 272 272 272 272 271 271 271 271 271 271 272 272 272 272
272 272 271 270 269 269 268 267 267 267 267 267 267 266 266 266 266 266 266 267 267 267 267 268 268 268 268 268 268 269 269 269 269 268 268 268 267 267 267 267 265 268 272 273 274 274 275 275 275 276 276 275 274 273 272 272 271 271 271 271 271 272 272 272 272 272 272 272 272
272 271 270 270 269 268 267 267 267 267 267 267 266 266 266 266 266 266 267 267 267 268 268 268 268 268 268 269 269 269 268 268 268 268 267 267 267 267 267 266 266 268 271 273 273 274 274 275 275 275 275 275 273 272 272 272 271 271 271 271 271 271 272 272 272 272 272 272 272
271 271 270 269 268 267 267 267 266 266 266 266 266 266 266 266 267 267 267 268 268 268 268 268 268 268 268 268 268 268 268 268 267 267 266 266 266 266 266 266 266 268 271 272 273 274 274 274 275 275 275 274 273 272 271 271 271 271 271 271 271 271 271 271 271 272 272 272 272
271 270 270 269 268 267 266 266 266 266 266 265 265 266 266 266 267 267 268 268 268 267 267 268 268 268 268 268 268 268 269 268 267 266 266 265 266 266 266 266 265 267 269 272 272 273 274 274 274 275 274 273 272 271 271 271 271 271 271 271 271 271 271 271 271 272 272 272 272
271 270 269 268 267 267 266 266 266 266 266 266 266 266 266 266 267 267 268 268 267 267 267 267 267 267 268 268 268 268 268 269 268 267 266 265 265 265 265 266 265 266 268 270 272 272 273 274 274 275 274 272 272 271 271 271 271 271 271 271 271 271 271 272 272 272 272 272 272
270 270 269 268 268 267 267 266 266 266 266 266 266 266 266 266 267 267 268 268 268 267 267 267 267 268 268 268 268 268 268 268 268 267 266 265 265 265 265 265 265 265 267 270 271 272 273 273 274 275 274 273 272 272 271 271 271 271 271 271 271 271 271 272 272 272 272 272 274
270 270 269 268 268 267 267 266 266 266 266 266 266 266 266 267 267 268 268 268 268 268 268 268 268 268 268 268 268 267 267 267 267 267 266 265 265 265 266 265 265 265 266 269 271 272 273 273 274 275 275 274 273 272 272 271 271 271 270 271 270 271 271 271 272 272 272 273 273
269 269 269 268 268 267 267 267 266 266 266 266 266 267 267 267 268 268 268 267 267 268 268 268 268 268 268 268 267 267 266 266 266 266 266 265 265 265 265 265 265 265 266 268 270 272 273 273 274 275 275 274 273 272 272 271 271 270 270 270 270 270 271 271 272 272 273 273 273
Wind_Speed
7 7 6 6 6 5 5 4 5 5 6 6 6 6 6 6 6 5 5 4 5 4 4 4 4 4 5 6 6 5 5 4 4 4 4 3 3 3 2 2 2 2 2 1 1 1 1 1 2 2 2 2 3 3 3 3 3 3 3 3 3 3 3 4 5 5 6 6 5
8 8 7 6 6 5 5 5 5 5 5 5 6 6 6 6 6 5 5 5 5 4 4 4 4 4 5 5 6 5 5 5 4 4 3 3 3 3 3 2 2 2 2 2 2 2 2 2 2 2 2 2 2 3 3 2 3 3 3 4 3 3 3 4 5 5 6 6 5
8 8 8 7 7 7 6 5 6 6 6 6 5 6 6 5 5 5 5 5 5 4 4 4 4 4 5 5 5 5 5 5 4 4 3 3 2 2 2 2 2 2 3 3 3 3 2 2 2 3 3 3 3 3 3 2 2 2 3 3 3 3 3 4 4 4 4 4 5
9 9 9 9 10 9 8 7 8 8 8 6 6 6 5 5 5 5 5 5 5 4 4 4 4 4 4 5 4 4 5 5 4 4 3 2 2 2 2 2 3 3 3 3 3 3 3 3 2 2 3 3 3 3 3 2 2 2 2 2 2 3 3 3 4 3 4 4 5
9 9 9 9 10 10 9 8 9 9 8 7 6 6 5 5 4 4 5 5 5 4 4 4 4 4 4 4 5 5 5 5 4 4 3 3 3 3 3 3 3 2 2 2 2 2 2 2 2 2 2 3 3 3 3 2 2 2 3 3 3 3 3 4 4 4 4 4 4
9 8 8 8 9 9 8 7 9 9 8 7 7 7 7 5 5 5 5 5 5 5 5 5 5 5 5 5 5 5 5 4 4 4 3 3 3 3 2 2 2 2 2 2 2 2 2 2 2 2 3 3 3 3 3 3 3 3 3 3 3 3 4 4 4 4 4 5 6
8 9 9 9 10 9 8 8 9 8 8 7 9 10 9 8 7 7 7 6 5 5 5 5 5 6 6 6 6 5 4 4 4 4 4 3 3 3 2 2 2 2 2 2 2 2 2 2 2 3 3 3 3 3 3 3 3 4 4 4 4 4 4 4 4 4 5 7 7
8 9 9 10 10 10 10 11 10 9 8 7 9 11 11 10 10 9 8 6 5 5 5 5 6 6 7 6 6 5 5 5 4 4 3 3 3 3 2 2 2 2 2 2 2 2 2 2 3 3 3 3 3 3 2 2 2 3 3 4 4 3 3 4 4 4 5 7 7
8 8 9 9 10 10 11 11 11 10 10 9 10 11 12 11 11 10 9 7 6 5 5 5 6 7 7 7 7 6 5 5 4 4 3 3 3 2 2 2 1 1 2 2 2 3 3 3 3 3 3 3 3 2 2 1 2 3 3 4 4 4 4 4 4 5 6 7 8
9 9 9 9 9 10 11 11 11 11 11 11 11 11 11 11 11 10 9 7 6 6 6 6 6 7 7 7 7 6 6 5 5 4 3 3 3 2 2 2 2 2 2 2 2 3 3 3 3 3 3 2 2 2 2 2 3 4 4 4 4 5 5 5 5 6 6 7 8
11 10 10 9 10 10 11 11 10 10 10 11 11 11 11 11 10 9 8 7 7 7 7 6 7 7 7 7 7 6 6 5 5 4 4 3 3 3 3 3 3 3 3 3 2 2 2 3 3 3 3 2 2 3 3 3 4 5 5 4 5 6 6 6 6 6 7 7 8
11 10 10 10 10 11 11 11 10 9 10 11 11 11 11 10 10 9 9 8 8 8 7 7 7 7 7 6 6 6 6 5 5 4 4 4 3 3 3 3 3 3 3 3 3 3 3 3 3 3 3 3 3 3 3 4 4 5 6 5 6 6 7 7 7 6 6 6 8
10 10 10 10 11 11 11 11 9 9 10 11 11 10 10 9 10 10 10 10 9 8 6 6 7 7 7 6 6 6 6 5 5 5 4 4 4 4 4 4 4 4 4 4 3 3 3 3 4 4 4 4 4 3 3 3 4 5 5 5 6 6 6 7 6 6 6 7 8
11 11 11 11 11 11 11 10 9 9 10 11 10 10 9 9 9 9 10 10 9 8 6 6 6 6 6 7 6 6 6 5 5 5 5 4 4 4 4 4 4 4 4 4 4 4 4 4 4 4 4 4 4 4 3 3 4 4 5 5 6 6 7 7 6 6 7 8 9
11 12 12 12 12 11 10 10 9 9 10 11 10 9 8 8 8 9 9 9 9 8 7 6 5 5 6 7 6 6 6 5 5 5 5 5 4 4 4 4 4 4 4 4 4 5 5 4 4 4 4 4 4 4 4 4 4 4 5 6 6 6 7 7 7 7 7 8 9
12 12 12 12 12 11 11 10 8 9 10 10 10 9 8 8 8 8 9 9 8 7 6 7 6 6 6 6 6 6 6 5 5 5 6 5 5 5 5 5 5 5 5 5 5 4 4 4 4 3 3 3 4 4 4 4 5 5 6 6 7 7 7 8 7 8 8 8 9
13 13 13 13 13 13 12 11 9 9 10 10 10 10 9 8 8 8 9 9 8 7 7 7 6 6 5 5 5 5 5 5 5 5 6 5 5 5 5 6 6 6 5 5 5 4 4 4 3 3 3 4 4 4 5 5 5 6 6 7 7 7 8 8 8 8 9 9 10
13 14 14 14 14 14 13 12 10 10 11 11 11 10 9 9 9 9 9 9 8 8 8 8 6 6 6 6 5 5 5 5 5 5 5 5 5 6 6 6 6 6 5 5 5 5 4 4 3 3 3 4 4 5 5 6 6 6 7 7 7 8 8 9 9 9 9 9 10
13 13 14 14 13 13 13 12 12 11 11 11 11 10 9 9 10 10 9 8 8 9 9 8 7 6 6 6 5 5 4 4 5 5 5 5 5 5 6 6 6 6 6 5 5 5 5 4 4 4 4 5 5 5 6 6 6 6 7 7 8 8 9 9 10 10 10 10 11
12 12 13 13 12 11 11 11 11 11 11 10 11 11 10 10 10 10 10 9 9 9 9 9 7 7 6 6 5 5 4 3 4 4 4 4 5 5 6 6 6 6 5 5 5 5 5 5 5 5 5 6 6 6 6 6 6 7 7 8 8 9 9 10 10 11 11 11 12
11 11 11 10 10 10 10 10 10 10 10 10 11 11 11 11 11 11 11 10 10 9 9 8 8 7 7 6 6 5 4 3 3 4 4 4 5 6 6 6 6 6 6 5 6 6 6 6 6 6 6 6 7 7 7 7 7 7 8 8 8 9 10 11 11 12 12 12 12
9 9 9 8 9 9 9 9 10 10 10 10 11 11 11 11 10 10 10 10 10 9 9 8 8 7 7 6 6 5 4 3 3 3 3 4 5 5 5 5 6 6 7 6 7 7 7 7 7 7 7 7 7 7 7 7 7 8 8 9 10 10 11 12 12 12 12 12 12
8 7 8 8 8 9 9 10 10 10 10 10 10 10 10 10 10 10 10 10 9 9 8 7 7 7 7 6 6 5 4 3 3 3 4 4 4 5 5 5 6 7 7 7 7 7 6 6 6 7 7 7 7 8 8 9 9 9 9 10 11 11 11 11 11 11 12 12 12
9 8 8 7 8 9 10 10 10 10 10 10 10 10 10 10 10 11 10 10 10 9 8 7 6 6 6 6 6 5 5 4 4 4 5 5 5 5 5 5 6 7 7 7 7 8 7 6 6 6 6 7 7 8 8 9 10 10 10 10 11 11 11 11 11 11 11 12 11
10 10 9 9 10 10 10 11 11 11 10 10 10 10 10 10 10 10 10 10 9 9 9 8 7 6 6 6 5 5 5 5 5 5 5 5 5 5 6 6 6 6 6 7 11 12 12 10 8 7 6 7 8 8 8 9 10 10 10 10 10 10 10 11 11 11 11 12 11
11 11 11 10 11 11 11 11 11 11 10 10 10 10 10 10 10 10 10 10 9 9 9 9 7 7 6 5 5 4 4 4 4 5 5 5 6 6 7 7 7 6 7 9 13 15 15 14 13 10 8 7 7 8 8 8 9 9 9 10 10 10 10 11 11 11 11 11 11
11 11 11 11 12 12 11 11 11 11 10 10 10 10 10 9 9 10 10 10 9 9 8 7 6 6 6 5 5 4 4 4 4 5 5 6 7 7 8 7 7 6 7 10 13 14 15 15 14 13 11 7 7 7 7 7 8 8 9 9 10 10 10 11 11 11 11 10 10
12 12 12 12 12 12 11 11 11 11 11 10 11 10 10 10 10 10 10 10 9 8 7 6 5 5 4 4 4 5 5 5 5 5 6 7 7 8 8 7 6 7 8 12 14 14 14 14 14 13 12 9 6 6 6 7 7 8 8 8 8 9 9 10 10 10 10 10 10
13 12 12 13 12 12 11 11 11 11 10 10 10 10 10 10 10 10 10 9 9 8 6 5 4 4 3 4 4 5 6 6 6 6 6 7 7 8 8 7 7 8 10 14 14 14 13 13 13 13 13 12 7 6 5 6 6 6 7 7 7 7 8 8 9 9 10 11 10
13 13 13 13 12 12 11 11 11 10 10 9 10 10 10 10 10 10 9 9 9 8 7 6 5 5 5 5 5 6 6 7 7 6 7 7 7 7 7 8 7 8 10 13 13 13 12 12 12 13 13 13 10 7 5 5 6 6 6 6 7 8 9 9 11 11 11 11 11
12 13 13 13 12 12 11 10 10 10 10 9 10 10 10 9 9 9 9 9 8 7 7 7 6 6 6 6 6 7 7 7 7 7 7 7 8 8 7 7 7 7 9 13 13 13 12 12 12 13 13 14 11 8 5 5 5 6 6 7 8 9 10 10 11 11 12 13 13
13 13 13 13 12 11 10 10 10 10 10 10 10 10 10 9 9 9 8 8 8 8 7 7 7 7 7 7 7 7 7 7 7 6 6 7 7 7 7 7 6 7 9 12 13 13 12 12 12 13 13 14 11 8 5 5 6 6 7 8 9 10 10 10 10 11 13 14 14
14 14 14 13 13 11 11 10 10 10 11 11 10 10 10 9 9 9 8 8 8 8 8 9 8 8 8 8 7 7 7 7 7 7 7 7 7 6 6 6 5 6 9 12 13 13 12 12 12 13 13 14 10 7 5 6 5 6 7 8 9 10 11 12 12 12 13 13 13
15 15 14 14 13 12 12 11 11 11 11 11 10 10 10 10 10 9 9 8 8 8 9 9 9 9 9 8 8 8 7 6 6 6 6 6 5 5 5 5 4 7 10 12 13 12 12 12 12 12 13 13 9 6 6 6 6 7 8 8 9 10 11 11 12 12 13 13 13
16 16 15 14 13 13 12 12 12 12 12 12 11 10 10 10 11 10 10 10 9 9 8 8 8 8 8 7 7 7 7 6 6 6 5 5 4 4 5 5 5 7 11 13 13 12 12 12 12 12 12 11 7 5 5 6 7 8 9 9 10 11 11 11 11 11 12 12 13
17 17 16 15 14 14 13 13 13 13 13 12 12 12 11 10 10 10 10 11 10 10 9 9 8 8 8 8 7 6 6 7 6 6 5 5 4 4 5 5 5 8 11 13 12 12 11 11 11 12 12 9 6 4 5 6 6 7 9 10 10 11 11 10 10 10 11 11 12
17 17 17 16 15 15 14 14 14 14 13 13 13 12 12 11 10 10 10 10 10 10 10 9 9 10 10 9 8 7 6 7 6 6 5 5 5 5 5 6 6 8 10 13 12 12 11 11 12 12 11 7 5 4 5 5 6 7 8 9 10 10 10 9 9 10 10 11 11
16 17 17 17 16 15 15 14 14 15 14 14 13 12 12 11 10 10 10 10 10 10 10 10 10 10 10 9 8 7 7 7 7 6 6 6 6 6 6 6 6 7 9 12 12 12 12 12 12 12 10 7 5 5 5 5 5 6 7 8 9 9 9 8 8 9 10 11 13
16 16 17 17 17 16 16 15 15 15 14 14 13 12 11 10 10 10 10 9 10 10 11 11 10 10 9 9 8 7 7 7 7 6 6 5 6 6 6 7 7 7 9 11 12 12 12 12 12 12 11 8 6 4 4 5 6 7 7 8 8 8 9 8 8 8 9 11 14
15 15 16 17 17 17 16 15 14 14 13 13 13 13 12 11 10 10 9 8 8 9 9 10 10 9 8 8 7 7 6 6 6 6 5 5 6 6 7 7 7 8 9 11 12 13 12 12 12 12 11 8 5 4 4 5 6 7 7 7 8 8 8 8 8 8 8 10 11
14 14 15 15 16 16 16 15 14 13 12 13 13 13 12 11 10 10 9 8 8 8 8 8 9 9 8 7 6 6 6 5 5 5 5 5 5 6 6 7 7 8 9 10 12 12 12 12 12 12 11 8 5 4 4 5 6 7 8 8 8 8 8 8 8 8 8 9 9
Wind_Direction
164 162 158 156 156 155 154 149 145 144 145 146 148 149 150 149 152 154 155 156 159 162 165 166 162 153 143 137 135 133 133 133 134 137 141 148 156 160 161 160 157 156 161 168 171 181 196 208 218 226 229 228 229 229 227 221 220 222 226 230 232 232 235 239 242 243 245 246 247
167 162 156 152 151 147 143 143 143 143 144 145 145 146 146 146 148 150 152 155 157 158 158 158 151 144 138 135 133 133 134 136 139 141 146 153 159 161 161 165 167 169 172 180 187 195 204 212 221 229 234 233 232 232 229 218 212 218 226 231 231 231 234 237 239 240 241 243 244
163 159 155 154 154 152 150 149 149 148 147 143 141 141 142 143 143 146 149 153 150 149 150 152 148 142 137 134 131 131 133 136 137 140 144 153 158 163 166 170 176 179 181 184 189 195 201 206 215 225 233 236 235 235 234 231 223 225 230 234 233 234 237 240 241 240 242 243 245
162 161 160 161 162 161 158 153 153 151 148 141 138 136 137 138 139 141 142 142 143 148 152 152 147 141 137 132 130 128 129 130 132 136 143 153 166 175 180 180 185 188 188 184 186 191 195 200 210 221 228 232 235 237 238 239 242 242 243 244 245 247 248 250 249 249 250 251 250
165 166 165 165 165 162 157 151 152 151 147 139 138 138 137 133 132 132 135 140 150 156 156 149 145 140 135 130 129 128 127 127 130 136 147 162 175 183 186 185 187 187 184 178 180 187 195 203 215 224 229 232 234 235 237 241 247 252 254 255 254 253 253 255 254 253 253 254 252
165 165 164 162 162 159 153 150 153 151 146 139 141 142 142 139 138 141 145 152 155 152 147 140 138 135 132 130 130 130 130 131 136 144 155 169 178 182 183 185 181 179 177 179 187 194 199 207 223 229 232 233 234 235 236 237 243 247 251 252 251 250 251 251 251 250 251 251 252
159 161 162 163 162 159 156 154 153 150 146 142 147 149 149 146 145 147 149 150 148 147 145 141 141 140 139 137 136 135 136 138 144 151 159 167 171 173 174 177 176 177 181 187 193 200 205 207 221 230 234 235 237 238 237 233 237 241 244 246 246 246 247 249 249 250 252 254 254
156 160 162 163 163 162 159 157 155 153 151 151 154 153 151 147 147 146 145 143 148 151 152 149 148 146 145 143 141 141 141 144 149 153 156 157 159 161 162 161 166 177 187 188 194 204 211 213 221 227 230 232 236 238 237 233 237 243 249 253 254 253 252 254 255 257 259 261 261
157 161 162 163 164 163 161 160 159 158 157 158 157 154 151 148 146 145 145 149 153 153 151 150 148 146 144 143 143 143 143 144 148 148 147 143 146 150 156 155 168 185 196 195 198 205 210 216 222 226 229 232 236 241 249 267 277 277 273 268 267 265 264 264 267 269 271 271 271
161 162 162 164 166 164 161 160 161 160 159 158 157 154 151 149 148 148 149 150 147 147 149 151 148 146 145 144 144 143 143 142 143 143 143 143 151 158 167 173 183 194 203 204 202 205 209 216 223 229 234 237 247 260 274 286 285 281 277 271 270 270 270 269 272 276 278 278 278
161 162 163 167 166 162 159 159 160 160 159 157 156 154 152 151 151 149 146 140 141 146 152 153 149 148 148 147 145 143 141 139 140 142 146 154 163 172 180 186 190 196 202 206 208 209 214 219 228 236 245 250 258 266 272 274 273 273 271 268 271 273 274 273 275 278 279 280 282
160 161 163 165 163 160 159 160 160 160 159 157 156 154 153 152 151 146 140 138 143 148 151 151 150 149 148 147 144 141 138 137 139 144 152 163 173 182 189 194 198 204 208 212 216 220 224 228 232 238 244 250 252 256 260 265 267 270 271 271 272 272 272 274 277 278 279 282 282
158 160 162 163 161 160 160 161 160 159 158 158 157 155 153 152 149 144 140 141 144 147 148 150 148 147 146 145 142 140 139 140 143 150 158 170 179 187 195 202 207 212 217 219 222 227 229 231 233 236 242 247 249 251 256 266 271 274 275 277 275 274 273 275 278 280 282 283 281
157 160 162 163 162 162 161 161 160 158 158 158 157 155 151 149 146 143 141 141 142 143 145 146 147 147 147 145 143 142 143 144 149 157 166 175 181 189 198 208 213 217 220 221 224 227 228 230 232 237 241 246 251 256 262 271 273 274 275 276 274 274 274 275 277 279 280 279 277
159 162 163 163 163 164 164 163 160 157 157 157 156 153 149 147 145 141 138 137 138 139 141 144 145 145 143 142 144 144 146 149 156 165 173 181 186 193 202 212 218 220 221 221 223 225 227 229 233 237 242 248 255 261 266 269 268 268 267 267 267 268 269 271 272 272 272 272 272
163 164 164 164 166 167 166 164 159 156 156 156 154 151 147 146 142 138 136 135 135 136 138 142 143 143 142 143 144 146 149 154 161 170 177 185 190 197 206 213 220 222 223 221 221 223 226 229 231 236 241 247 253 258 260 261 261 260 259 259 260 261 263 265 265 265 264 264 266
165 167 167 168 169 169 168 165 159 155 154 153 152 150 148 144 140 137 136 136 135 136 139 143 143 143 144 146 147 149 153 159 167 174 180 186 192 200 208 215 221 223 223 222 222 224 226 228 230 233 236 243 247 250 251 252 253 252 253 253 254 255 257 258 258 258 258 258 260
169 170 170 171 172 171 168 163 157 154 152 151 151 149 147 143 139 137 135 135 135 137 140 141 141 143 145 149 152 154 159 165 172 178 183 188 193 201 210 218 221 222 223 224 226 227 228 227 228 229 233 238 242 244 246 246 247 248 248 249 249 250 251 252 252 253 253 254 255
170 171 172 173 173 170 166 160 155 152 150 149 148 147 144 141 138 135 133 132 135 137 138 139 140 142 145 147 150 155 160 167 173 179 185 190 197 205 213 219 222 223 224 226 228 228 227 224 224 226 229 233 237 239 240 241 242 243 245 245 246 247 247 248 248 248 249 249 251
171 172 173 173 170 166 161 156 152 149 146 144 144 144 142 140 136 134 133 134 134 134 135 137 139 142 144 145 147 152 158 163 168 177 186 192 200 209 216 220 223 225 225 226 226 225 224 222 222 223 226 229 233 235 237 237 238 240 242 244 245 245 245 245 245 245 245 245 245
172 172 172 168 164 160 155 150 146 143 142 142 143 143 141 138 135 134 134 133 130 129 131 135 138 142 144 145 147 150 153 154 161 173 185 194 203 211 217 221 224 226 226 225 225 223 221 220 220 222 224 227 229 231 233 235 237 239 240 242 243 243 243 243 243 242 242 241 241
170 167 164 159 157 152 147 142 140 140 140 142 142 141 138 136 133 131 129 126 126 127 130 133 136 139 142 144 146 146 147 149 159 172 185 196 206 212 216 219 223 225 227 226 224 223 222 221 221 222 223 225 227 228 230 233 236 239 240 242 243 242 242 241 241 241 241 241 242
160 156 153 151 149 145 141 138 138 139 140 142 141 138 135 133 129 126 123 122 125 128 130 130 132 135 138 140 142 143 147 154 167 180 191 199 208 213 216 218 221 224 226 225 223 221 221 223 223 222 223 225 227 228 230 232 234 237 239 240 241 241 241 241 242 243 244 245 246
151 150 148 146 145 142 140 138 139 140 142 143 141 137 134 130 126 124 123 123 126 127 128 126 127 130 133 135 138 144 151 161 172 184 193 201 206 211 215 218 222 224 225 225 221 218 216 216 218 220 222 224 226 227 228 229 231 233 236 239 242 244 245 246 247 249 250 251 251
148 147 145 144 145 143 142 141 142 143 144 143 139 135 131 129 127 125 123 122 122 121 121 119 118 119 123 127 131 138 149 162 173 184 193 202 206 210 215 220 223 225 226 226 227 225 222 216 211 209 212 217 221 224 226 228 230 234 237 242 247 251 254 255 253 253 253 254 254
147 147 147 146 145 144 144 145 145 144 142 139 135 132 130 129 125 123 122 120 118 116 115 115 114 115 117 120 125 133 146 163 177 187 196 204 209 212 216 221 224 226 227 227 228 229 227 224 219 214 209 210 216 222 226 231 233 237 241 246 251 255 258 260 260 259 258 257 257
149 150 150 147 146 147 147 146 143 141 140 138 136 134 131 128 123 121 120 119 117 114 112 111 113 117 120 119 131 144 159 175 188 197 203 208 212 215 218 222 223 225 226 227 229 230 231 230 229 226 221 215 219 226 233 240 242 244 246 249 252 255 258 262 264 265 265 263 261
153 151 149 146 148 148 147 142 142 142 142 140 137 134 130 125 123 122 122 121 118 116 114 113 117 119 122 130 149 164 175 185 195 203 209 212 215 217 220 223 224 225 227 229 231 232 233 234 237 238 238 235 233 234 240 246 248 249 250 251 254 256 259 262 265 268 269 269 266
152 149 146 147 148 146 144 143 144 144 141 137 133 130 127 125 125 125 124 124 125 126 127 126 125 126 134 152 166 176 185 194 200 205 209 212 217 220 223 226 226 229 231 232 234 235 237 239 243 247 250 250 247 243 242 245 249 251 254 255 257 260 263 266 268 271 273 274 274
148 146 146 148 146 144 144 145 143 140 135 129 128 127 126 126 126 127 128 130 134 136 137 134 136 144 156 165 171 180 189 197 201 203 206 210 216 221 225 228 227 230 234 236 239 242 244 246 249 253 256 258 257 254 250 250 254 257 260 262 264 266 268 270 272 274 275 276 276
145 144 145 145 144 143 143 141 136 132 129 125 126 127 127 127 130 132 133 135 136 135 135 137 145 154 163 169 175 182 188 194 197 201 205 210 216 221 225 228 228 232 237 241 245 248 250 252 254 257 259 261 260 258 254 253 257 261 264 266 267 268 270 271 272 273 273 274 275
144 144 144 143 143 141 138 134 131 129 128 127 128 128 129 130 131 132 132 132 132 135 140 148 154 161 167 172 177 182 186 190 194 198 203 208 214 219 225 230 230 234 240 244 248 251 253 255 256 258 260 263 264 263 260 260 262 264 266 266 267 267 267 268 269 270 271 273 274
145 145 145 144 142 139 135 134 133 131 130 129 129 130 130 129 128 128 130 133 139 146 153 160 163 166 170 174 178 183 186 190 194 198 203 206 211 217 225 231 236 240 243 247 250 252 254 256 258 261 264 268 271 271 267 264 263 263 264 265 265 265 266 266 268 270 271 273 274
148 147 146 144 141 138 137 137 136 134 133 132 132 132 132 131 133 136 140 145 150 155 161 165 166 168 170 173 177 181 185 190 193 196 199 201 205 215 227 234 240 244 246 250 252 254 256 257 261 265 269 273 273 270 265 263 263 264 265 265 266 266 266 267 268 269 271 271 272
151 149 147 144 141 140 140 141 140 138 137 136 136 137 138 140 143 146 149 151 153 156 160 164 164 165 167 171 175 179 182 185 188 190 192 193 201 218 232 239 244 248 250 253 255 256 258 261 266 269 272 274 271 266 262 264 266 267 267 267 268 267 267 267 268 269 269 270 270
153 151 148 144 143 143 144 145 143 143 142 143 143 143 145 147 149 149 150 150 151 154 158 161 161 163 166 171 175 178 180 179 181 183 185 187 198 218 233 242 246 251 254 256 258 260 263 266 269 272 274 275 270 265 264 265 267 268 268 269 269 269 269 268 268 268 268 268 268
156 152 149 146 146 147 148 148 148 148 149 149 148 149 149 150 149 149 150 150 151 155 158 160 161 164 168 171 175 178 178 175 175 178 183 189 198 214 231 242 247 252 256 259 262 264 267 269 270 272 274 275 270 266 266 266 268 270 271 271 272 272 271 270 270 269 268 267 266
157 153 150 147 149 151 152 152 153 153 153 152 150 150 149 148 148 151 153 154 155 157 158 159 162 164 167 169 171 172 172 170 170 173 180 190 198 210 225 240 246 251 255 259 263 266 268 269 271 273 274 275 271 269 270 271 272 274 275 276 276 275 274 273 273 272 271 268 270
158 154 151 150 152 153 155 157 157 156 153 150 148 148 148 148 149 152 156 158 157 157 156 157 159 160 162 163 163 164 166 166 166 169 177 189 197 208 220 236 245 250 254 258 262 266 268 270 272 274 276 276 274 273 273 274 275 276 278 280 280 279 278 276 276 276 275 273 277
158 155 154 153 154 155 157 159 158 155 150 147 146 147 148 150 149 150 152 154 155 153 152 151 153 154 155 156 157 158 160 164 167 171 178 188 199 208 219 233 243 249 253 257 262 266 269 270 272 275 277 278 276 274 274 275 277 278 280 282 283 283 283 281 279 279 280 281 283
158 156 156 156 155 156 157 157 155 151 147 146 147 147 147 146 144 145 147 150 151 149 145 144 146 147 148 150 150 152 156 164 173 178 183 190 200 210 220 230 239 245 250 255 261 265 268 270 272 276 279 281 277 275 275 278 280 282 283 283 283 284 284 285 283 282 284 288 291